GW4034 Weather Reports


Display with metric or nautical units.
time (UTC)temp
F
wind
direction
speed
MPH
gust
MPH
rain 1hr
in
rain 24hr
in
rain mn
in
humidity
%
barometer
mb
20260831072312 69 204 0.0 0.0 0.00 0.00 0.00 90 1023.3
20260831071808 69 274 0.0 0.0 0.00 0.00 0.00 89 1023.4
20260831071302 69 294 1.0 1.0 0.00 0.00 0.00 90 1023.6
20260831070802 69 238 0.0 0.0 0.00 0.00 0.00 89 1023.5
20260831070301 69 243 0.0 0.0 0.00 0.00 0.00 89 1023.5
20260831065800 69 238 0.0 0.0 0.00 0.00 0.00 89 1023.5
20260831065258 69 231 1.0 1.0 0.00 0.00 0.00 89 1023.4
20260831064754 69 237 0.0 0.0 0.00 0.00 0.00 89 1023.3
20260831064254 69 245 1.0 1.0 0.00 0.00 0.00 88 1023.3
20260831063750 69 273 0.0 0.0 0.00 0.00 0.00 88 1023.3
20260831063245 69 9 2.0 3.0 0.00 0.00 0.00 88 1023.3
20260831062740 69 257 0.0 0.0 0.00 0.00 0.00 88 1023.4
20260831062235 69 236 0.0 0.0 0.00 0.00 0.00 87 1023.5
20260831061732 69 225 0.0 0.0 0.00 0.00 0.00 87 1023.5
20260831061223 69 335 1.0 1.0 0.00 0.00 0.00 87 1023.6
20260831060719 69 209 0.0 0.0 0.00 0.00 0.00 87 1023.4
20260831060218 70 322 1.0 1.0 0.00 0.00 0.00 87 1023.2
20260831055719 70 346 0.0 2.0 0.00 0.00 0.00 87 1023.2
20260831055213 70 273 2.0 2.0 0.00 0.00 0.00 87 1023.3
20260831054713 70 208 1.0 1.0 0.00 0.00 0.00 87 1023.1
20260831054208 70 269 1.0 1.0 0.00 0.00 0.00 87 1023.0
20260831053707 70 319 1.0 2.0 0.00 0.00 0.00 88 1023.0
20260831053206 70 256 0.0 1.0 0.00 0.00 0.00 87 1023.1
20260831052706 70 355 1.0 2.0 0.00 0.00 0.00 87 1023.2
20260831052205 70 325 1.0 1.0 0.00 0.00 0.00 88 1023.2
20260831051703 70 341 3.0 3.0 0.00 0.00 0.00 88 1023.2
20260831051202 70 354 2.0 3.0 0.00 0.00 0.00 88 1023.0
20260831050657 70 232 0.0 1.0 0.00 0.00 0.00 88 1023.1
20260831050156 70 255 2.0 2.0 0.00 0.00 0.00 88 1023.3
20260831045651 70 287 1.0 2.0 0.00 0.00 0.00 88 1023.2
20260831045145 69 151 0.0 1.0 0.00 0.00 0.00 88 1023.1
20260831044641 69 249 0.0 1.0 0.00 0.00 0.00 90 1023.1
20260831044136 69 272 0.0 1.0 0.00 0.00 0.00 91 1023.1
20260831043631 69 253 1.0 1.0 0.00 0.00 0.00 91 1022.9
20260831043127 69 277 1.0 1.0 0.00 0.00 0.00 92 1022.9
20260831042626 70 234 0.0 0.0 0.00 0.00 0.00 92 1022.8
20260831042121 70 253 0.0 1.0 0.00 0.00 0.00 92 1023.0
20260831041615 70 261 0.0 1.0 0.00 0.00 0.00 92 1023.1
20260831041109 70 264 0.0 0.0 0.00 0.00 0.00 91 1022.8
20260831040604 70 235 0.0 0.0 0.00 0.00 0.00 91 1023.1
20260831040058 70 228 0.0 0.0 0.00 0.06 0.06 91 1022.9
20260831035555 70 233 0.0 0.0 0.00 0.06 0.06 90 1023.1
20260831035050 71 236 0.0 0.0 0.00 0.06 0.06 90 1022.9
20260831034549 71 253 0.0 0.0 0.00 0.06 0.06 89 1022.8
20260831034045 71 227 0.0 0.0 0.00 0.06 0.06 89 1022.8
20260831033541 71 234 0.0 0.0 0.00 0.06 0.06 88 1022.9
20260831033036 71 244 0.0 1.0 0.00 0.06 0.06 88 1022.9
20260831032535 71 249 0.0 0.0 0.00 0.06 0.06 89 1022.9
20260831032031 71 149 1.0 1.0 0.00 0.06 0.06 90 1023.0
20260831031530 71 351 2.0 3.0 0.00 0.06 0.06 91 1023.1
20260831031030 72 40 3.0 3.0 0.00 0.06 0.06 92 1023.3
20260831030529 72 229 0.0 0.0 0.00 0.06 0.06 92 1023.5
20260831030029 72 234 0.0 0.0 0.00 0.06 0.06 92 1023.3
20260831025521 72 229 0.0 0.0 0.00 0.06 0.06 92 1023.3
20260831025016 72 215 0.0 0.0 0.00 0.06 0.06 92 1023.2
20260831024507 72 225 0.0 0.0 0.00 0.06 0.06 92 1023.3
20260831024007 72 232 0.0 0.0 0.00 0.06 0.06 91 1023.4
20260831023504 72 223 0.0 0.0 0.00 0.06 0.06 91 1023.3
20260831022959 73 225 0.0 0.0 0.00 0.06 0.06 91 1023.3
20260831022458 73 236 0.0 0.0 0.00 0.06 0.06 91 1023.3
20260831021953 73 252 1.0 1.0 0.07 0.06 0.06 91 1023.5
20260831021452 72 224 1.0 2.0 0.07 0.06 0.06 91 1023.3
20260831020949 72 220 0.0 0.0 0.00 0.05 0.05 92 1023.8
20260831020449 72 237 0.0 0.0 0.00 0.05 0.05 91 1023.8
20260831015943 72 229 0.0 0.0 0.00 0.05 0.05 91 1023.6
20260831015439 72 270 1.0 1.0 0.07 0.05 0.05 91 1023.6
20260831014934 72 324 3.0 3.0 0.07 0.05 0.05 91 1023.6
20260831014429 73 227 0.0 0.0 0.05 0.04 0.04 91 1023.4
20260831013925 73 225 0.0 0.0 0.05 0.04 0.04 91 1023.3
20260831013420 73 221 0.0 0.0 0.07 0.03 0.03 91 1023.4
20260831012914 73 226 0.0 0.0 0.07 0.03 0.03 90 1023.5
20260831012409 73 224 0.0 0.0 0.00 0.02 0.02 89 1023.4
20260831011903 73 234 0.0 0.0 0.00 0.02 0.02 89 1023.3
20260831011358 73 248 0.0 0.0 0.05 0.02 0.02 88 1023.4
20260831010854 74 221 0.0 0.0 0.05 0.02 0.02 88 1023.4
20260831010353 74 239 0.0 0.0 0.00 0.01 0.01 88 1023.2
20260831005849 74 317 2.0 2.0 0.00 0.01 0.01 88 1023.3
20260831005345 74 229 0.0 0.0 0.07 0.01 0.01 88 1023.2
20260831004839 74 223 0.0 0.0 0.07 0.01 0.01 88 1023.0
20260831004336 74 242 0.0 0.0 0.00 0.00 0.00 87 1023.2
20260831003831 74 218 0.0 0.0 0.00 0.00 0.00 87 1023.1
20260831003327 74 224 0.0 0.0 0.00 0.00 0.00 86 1023.0
20260831002826 75 217 0.0 0.0 0.00 0.00 0.00 86 1022.8
20260831002320 75 276 0.0 1.0 0.00 0.00 0.00 85 1022.8
20260831001816 75 223 0.0 0.0 0.00 0.00 0.00 84 1022.8
20260831001311 75 218 0.0 0.0 0.00 0.00 0.00 83 1022.9
20260831000809 76 211 0.0 0.0 0.00 0.00 0.00 82 1022.4
20260831000310 76 221 0.0 0.0 0.00 0.00 0.00 81 1022.7
20260830235807 76 223 0.0 0.0 0.00 0.00 0.00 81 1022.4
20260830235305 76 216 0.0 0.0 0.00 0.00 0.00 81 1022.4
20260830234757 76 216 0.0 0.0 0.00 0.00 0.00 80 1022.2
20260830234253 76 215 0.0 0.0 0.00 0.00 0.00 80 1022.2
20260830233748 76 218 0.0 0.0 0.00 0.00 0.00 80 1022.0
20260830233244 76 217 0.0 0.0 0.00 0.00 0.00 80 1022.0
20260830232739 77 217 0.0 0.0 0.00 0.00 0.00 80 1022.1
20260830232235 77 212 0.0 0.0 0.00 0.00 0.00 79 1021.9
20260830231731 77 217 0.0 0.0 0.00 0.00 0.00 79 1022.0
20260830231230 77 205 0.0 0.0 0.00 0.00 0.00 79 1021.9
20260830230726 77 186 0.0 1.0 0.00 0.00 0.00 78 1022.0
20260830230221 77 219 0.0 0.0 0.00 0.00 0.00 78 1021.9
20260830225720 77 226 0.0 0.0 0.00 0.00 0.00 78 1022.1
20260830225215 77 216 0.0 0.0 0.00 0.00 0.00 78 1022.0
20260830224714 77 205 1.0 2.0 0.00 0.00 0.00 78 1022.1
20260830224210 77 219 0.0 0.0 0.00 0.00 0.00 78 1022.1
20260830223707 77 223 0.0 1.0 0.00 0.00 0.00 78 1022.0
20260830223202 78 208 0.0 0.0 0.00 0.00 0.00 78 1022.1
20260830222656 78 219 1.0 2.0 0.00 0.00 0.00 78 1022.1
20260830222152 78 222 0.0 0.0 0.00 0.00 0.00 78 1022.0
20260830221647 78 200 0.0 0.0 0.00 0.00 0.00 78 1022.4
20260830221138 78 214 0.0 0.0 0.00 0.00 0.00 77 1022.3
20260830220633 78 220 0.0 0.0 0.00 0.00 0.00 77 1022.4
20260830220132 78 198 0.0 0.0 0.00 0.00 0.00 78 1022.3
20260830215631 78 213 0.0 0.0 0.00 0.00 0.00 77 1022.7
20260830215125 78 219 0.0 0.0 0.00 0.00 0.00 77 1022.4
20260830214620 78 232 1.0 2.0 0.00 0.00 0.00 76 1022.2
20260830214110 78 227 1.0 2.0 0.00 0.00 0.00 76 1022.2
20260830213609 78 229 1.0 2.0 0.00 0.00 0.00 75 1022.2
20260830213105 79 220 0.0 0.0 0.00 0.00 0.00 74 1022.1
20260830212600 79 204 0.0 1.0 0.00 0.00 0.00 74 1022.2
20260830212055 79 211 0.0 1.0 0.00 0.00 0.00 74 1022.2
20260830211550 79 220 0.0 0.0 0.00 0.00 0.00 74 1022.4
20260830211049 80 192 2.0 3.0 0.00 0.00 0.00 73 1022.3
20260830210544 79 230 0.0 1.0 0.00 0.00 0.00 73 1022.4
20260830210038 80 265 3.0 4.0 0.00 0.00 0.00 72 1022.6
20260830205536 79 243 1.0 1.0 0.00 0.00 0.00 72 1022.4
20260830205031 80 263 2.0 4.0 0.00 0.00 0.00 72 1022.3
20260830204530 79 249 2.0 2.0 0.00 0.00 0.00 72 1022.7
20260830204030 79 192 0.0 1.0 0.00 0.00 0.00 73 1022.6
20260830203527 79 233 1.0 2.0 0.00 0.00 0.00 73 1023.0
20260830203021 78 187 0.0 1.0 0.00 0.00 0.00 73 1022.8
20260830202521 79 229 0.0 1.0 0.00 0.00 0.00 72 1022.9
20260830202017 79 198 0.0 0.0 0.00 0.00 0.00 74 1023.0
20260830201516 78 237 4.0 6.0 0.00 0.00 0.00 74 1023.1
20260830201011 78 226 0.0 0.0 0.00 0.00 0.00 75 1023.0
20260830200507 78 228 0.0 1.0 0.00 0.00 0.00 75 1022.9
20260830200006 78 223 2.0 2.0 0.00 0.00 0.00 75 1023.2
20260830195501 77 222 0.0 1.0 0.00 0.00 0.00 75 1023.1
20260830194959 77 217 2.0 2.0 0.00 0.00 0.00 75 1023.1
20260830194458 77 220 1.0 2.0 0.00 0.00 0.00 75 1023.2
20260830193954 77 251 2.0 3.0 0.00 0.00 0.00 75 1023.4
20260830193452 77 243 2.0 3.0 0.00 0.00 0.00 75 1023.1
20260830192948 77 219 0.0 1.0 0.00 0.00 0.00 75 1023.2
20260830192443 77 261 1.0 1.0 0.00 0.00 0.00 74 1023.3
20260830191938 77 271 2.0 3.0 0.00 0.00 0.00 74 1023.3
20260830191438 77 223 1.0 1.0 0.00 0.00 0.00 74 1023.5
20260830190934 77 234 2.0 2.0 0.00 0.00 0.00 73 1023.5
20260830190429 77 207 4.0 6.0 0.00 0.00 0.00 73 1023.6
20260830185928 77 190 4.0 6.0 0.00 0.00 0.00 73 1023.6
20260830185423 78 255 2.0 3.0 0.00 0.00 0.00 72 1024.0
20260830184919 78 220 2.0 2.0 0.00 0.00 0.00 72 1024.0
20260830184417 77 216 0.0 0.0 0.00 0.00 0.00 73 1023.9
20260830183917 78 194 4.0 6.0 0.00 0.00 0.00 72 1024.0
20260830183412 79 268 2.0 2.0 0.00 0.00 0.00 70 1024.0
20260830182908 78 223 1.0 1.0 0.00 0.00 0.00 70 1024.0
20260830182403 78 231 0.0 1.0 0.00 0.00 0.00 70 1024.0
20260830181859 78 227 4.0 6.0 0.00 0.00 0.00 69 1024.1
20260830181354 78 221 3.0 6.0 0.00 0.00 0.00 69 1024.1
20260830180849 78 264 1.0 2.0 0.00 0.00 0.00 68 1024.4
20260830180348 78 182 2.0 3.0 0.00 0.00 0.00 67 1024.4
20260830175848 79 173 3.0 3.0 0.00 0.00 0.00 66 1024.5
20260830175342 80 236 0.0 0.0 0.00 0.00 0.00 66 1024.3
20260830174837 80 149 3.0 3.0 0.00 0.00 0.00 64 1024.5
20260830174333 79 228 0.0 0.0 0.00 0.00 0.00 66 1024.6
20260830173832 78 185 1.0 1.0 0.00 0.00 0.00 65 1024.6
20260830173328 78 204 0.0 1.0 0.00 0.00 0.00 65 1024.5
20260830172824 78 298 3.0 3.0 0.00 0.00 0.00 65 1024.5
20260830172321 79 270 2.0 3.0 0.00 0.00 0.00 64 1024.6
20260830171816 80 230 0.0 1.0 0.00 0.00 0.00 64 1024.7
20260830171312 79 255 2.0 2.0 0.00 0.00 0.00 63 1024.6
20260830170806 79 216 1.0 1.0 0.00 0.00 0.00 62 1024.6
20260830170305 80 205 1.0 1.0 0.00 0.00 0.00 61 1024.7
20260830165759 79 293 2.0 3.0 0.00 0.00 0.00 65 1024.6
20260830165255 78 191 3.0 4.0 0.00 0.00 0.00 63 1024.5
20260830164751 78 225 2.0 2.0 0.00 0.00 0.00 63 1024.8
20260830164247 78 293 2.0 3.0 0.00 0.00 0.00 62 1024.8
20260830163743 79 222 3.0 4.0 0.00 0.00 0.00 61 1024.8
20260830163238 78 205 1.0 1.0 0.00 0.00 0.00 61 1024.9
20260830162732 78 236 4.0 6.0 0.00 0.00 0.00 59 1025.1
20260830162229 79 259 2.0 2.0 0.00 0.00 0.00 58 1025.0
20260830161724 79 171 0.0 0.0 0.00 0.00 0.00 59 1025.4
20260830161218 79 202 1.0 2.0 0.00 0.00 0.00 57 1025.3
20260830160714 78 232 4.0 4.0 0.00 0.00 0.00 56 1025.2
20260830160209 78 200 1.0 1.0 0.00 0.00 0.00 57 1025.4
20260830155706 79 304 2.0 3.0 0.00 0.00 0.00 56 1025.6
20260830155201 80 239 0.0 0.0 0.00 0.00 0.00 54 1025.4
20260830154656 80 263 1.0 2.0 0.00 0.00 0.00 54 1025.5
20260830154152 80 258 2.0 3.0 0.00 0.00 0.00 53 1025.2
20260830153649 80 221 1.0 1.0 0.00 0.00 0.00 56 1025.5
20260830153148 80 182 1.0 2.0 0.00 0.00 0.00 56 1025.4
20260830152647 80 207 0.0 1.0 0.00 0.00 0.00 54 1025.3
20260830152146 79 173 1.0 2.0 0.00 0.00 0.00 55 1025.6
20260830151642 80 241 3.0 3.0 0.00 0.00 0.00 53 1025.9
20260830151141 79 240 2.0 2.0 0.00 0.00 0.00 54 1025.8
20260830150641 78 233 1.0 2.0 0.00 0.00 0.00 57 1025.9
20260830150136 78 248 1.0 1.0 0.00 0.00 0.00 56 1026.0
20260830145635 78 201 2.0 3.0 0.00 0.00 0.00 55 1026.0
20260830145131 78 219 0.0 0.0 0.00 0.00 0.00 58 1026.1
20260830144626 78 208 3.0 4.0 0.00 0.00 0.00 56 1026.2
20260830144122 78 195 0.0 0.0 0.00 0.00 0.00 61 1026.1
20260830143618 77 197 0.0 0.0 0.00 0.00 0.00 62 1026.3
20260830143115 78 243 4.0 7.0 0.00 0.00 0.00 60 1026.2
20260830142611 79 218 0.0 0.0 0.00 0.00 0.00 62 1026.3
20260830142107 77 111 0.0 1.0 0.00 0.00 0.00 62 1026.3
20260830141602 77 226 2.0 3.0 0.00 0.00 0.00 62 1026.0
20260830141057 77 232 0.0 1.0 0.00 0.00 0.00 62 1026.3
20260830140556 77 196 1.0 1.0 0.00 0.00 0.00 64 1026.4
20260830140052 78 212 3.0 3.0 0.00 0.00 0.00 61 1026.3
20260830135547 77 197 0.0 0.0 0.00 0.00 0.00 62 1026.2
20260830135042 77 211 0.0 1.0 0.00 0.00 0.00 62 1026.5
20260830134538 76 219 1.0 1.0 0.00 0.00 0.00 60 1026.6
20260830134033 75 227 2.0 2.0 0.00 0.00 0.00 62 1026.5
20260830133529 75 185 4.0 4.0 0.00 0.00 0.00 61 1026.6
20260830133023 74 231 2.0 3.0 0.00 0.00 0.00 64 1026.8
20260830132514 74 247 2.0 3.0 0.00 0.00 0.00 64 1026.7
20260830132014 73 251 1.0 1.0 0.00 0.00 0.00 67 1026.8
20260830131513 74 235 2.0 2.0 0.00 0.00 0.00 66 1026.7
20260830131008 73 238 1.0 1.0 0.00 0.00 0.00 67 1026.7
20260830130503 73 258 1.0 1.0 0.00 0.00 0.00 68 1026.7
20260830130002 72 211 0.0 0.0 0.00 0.00 0.00 69 1026.7
20260830125457 71 241 2.0 3.0 0.00 0.00 0.00 69 1026.9
20260830124955 71 209 1.0 1.0 0.00 0.00 0.00 70 1026.9
20260830124450 70 230 1.0 1.0 0.00 0.00 0.00 72 1026.8
20260830123947 70 211 0.0 0.0 0.00 0.00 0.00 72 1026.9
20260830123438 70 222 1.0 2.0 0.00 0.00 0.00 73 1026.8
20260830122935 69 214 0.0 1.0 0.00 0.00 0.00 73 1027.0
20260830122434 68 229 0.0 1.0 0.00 0.00 0.00 75 1026.9
20260830121929 67 226 0.0 0.0 0.00 0.00 0.00 77 1026.8
20260830121425 66 220 0.0 0.0 0.00 0.00 0.00 80 1026.9
20260830120920 66 225 0.0 0.0 0.00 0.00 0.00 81 1027.1
20260830120415 65 230 0.0 0.0 0.00 0.00 0.00 82 1026.9
20260830115912 65 235 0.0 0.0 0.00 0.00 0.00 83 1027.0
20260830115408 64 252 0.0 0.0 0.00 0.00 0.00 85 1027.1
20260830114903 63 223 0.0 0.0 0.00 0.00 0.00 86 1026.9
20260830114359 63 224 0.0 0.0 0.00 0.00 0.00 86 1027.0
20260830113859 63 223 0.0 0.0 0.00 0.00 0.00 87 1026.9
20260830113354 62 224 0.0 0.0 0.00 0.00 0.00 88 1027.1
20260830112850 62 224 0.0 0.0 0.00 0.00 0.00 89 1026.9
20260830112345 62 234 0.0 0.0 0.00 0.00 0.00 89 1026.9
20260830111841 61 234 0.0 0.0 0.00 0.00 0.00 89 1027.0
20260830111337 61 234 0.0 0.0 0.00 0.00 0.00 90 1027.0
20260830110837 60 234 0.0 0.0 0.00 0.00 0.00 90 1026.9
20260830110328 60 234 0.0 0.0 0.00 0.00 0.00 90 1026.9
20260830105827 60 234 0.0 0.0 0.00 0.00 0.00 90 1027.0
20260830105324 60 232 0.0 0.0 0.00 0.00 0.00 90 1027.0
20260830104820 60 232 0.0 0.0 0.00 0.00 0.00 90 1026.9
20260830104316 60 232 0.0 0.0 0.00 0.00 0.00 89 1026.8
20260830103815 60 232 0.0 0.0 0.00 0.00 0.00 89 1027.0
20260830103311 60 232 0.0 0.0 0.00 0.00 0.00 89 1026.7
20260830102809 60 232 0.0 0.0 0.00 0.00 0.00 89 1026.8
20260830102307 60 232 0.0 0.0 0.00 0.00 0.00 89 1026.7
20260830101801 60 232 0.0 0.0 0.00 0.00 0.00 89 1026.9
20260830101256 60 231 0.0 0.0 0.00 0.00 0.00 89 1026.8
20260830100754 60 232 0.0 0.0 0.00 0.00 0.00 88 1026.8
20260830100250 61 216 0.0 0.0 0.00 0.00 0.00 88 1026.9
20260830095748 61 234 0.0 0.0 0.00 0.00 0.00 88 1026.9
20260830095244 61 235 0.0 0.0 0.00 0.00 0.00 88 1027.1
20260830094740 60 240 0.0 0.0 0.00 0.00 0.00 88 1027.1
20260830094237 60 234 0.0 0.0 0.00 0.00 0.00 88 1027.2
20260830093736 60 237 0.0 0.0 0.00 0.00 0.00 88 1026.9
20260830093233 60 230 0.0 0.0 0.00 0.00 0.00 88 1027.0
20260830092732 60 230 0.0 0.0 0.00 0.00 0.00 87 1027.1
20260830092229 61 230 0.0 0.0 0.00 0.00 0.00 87 1027.1
20260830091725 61 231 0.0 0.0 0.00 0.00 0.00 87 1027.0
20260830091225 61 230 0.0 0.0 0.00 0.00 0.00 87 1026.9
20260830090724 61 230 0.0 0.0 0.00 0.00 0.00 86 1026.7
20260830090220 61 229 0.0 0.0 0.00 0.00 0.00 86 1027.0
20260830085719 61 229 0.0 0.0 0.00 0.00 0.00 86 1026.8
20260830085215 62 232 0.0 0.0 0.00 0.00 0.00 85 1027.0
20260830084710 62 233 0.0 0.0 0.00 0.00 0.00 85 1027.0
20260830084205 62 235 0.0 0.0 0.00 0.00 0.00 85 1027.0
20260830083700 62 242 0.0 1.0 0.00 0.00 0.00 85 1027.2
20260830083156 62 242 0.0 0.0 0.00 0.00 0.00 85 1027.0
20260830082655 62 248 0.0 0.0 0.00 0.00 0.00 85 1027.3
20260830082151 62 241 0.0 0.0 0.00 0.00 0.00 85 1027.3
20260830081647 62 247 0.0 1.0 0.00 0.00 0.00 84 1027.3
20260830081146 62 233 0.0 0.0 0.00 0.00 0.00 84 1027.2
20260830080641 62 239 0.0 1.0 0.00 0.00 0.00 84 1027.1
20260830080136 62 254 0.0 0.0 0.00 0.00 0.00 83 1027.2
20260830075630 62 237 0.0 0.0 0.00 0.00 0.00 84 1027.3
20260830075126 61 238 0.0 0.0 0.00 0.00 0.00 84 1027.0
20260830074621 61 186 0.0 0.0 0.00 0.00 0.00 86 1027.2
20260830074116 60 240 0.0 0.0 0.00 0.00 0.00 87 1027.4
20260830073613 60 239 0.0 0.0 0.00 0.00 0.00 88 1027.2
20260830073108 60 235 0.0 0.0 0.00 0.00 0.00 88 1027.2